Regional Weather Roundup
Issued by NWS

Home | Current Version | Previous Version | Text Only | Print | Product List | Glossary On
Versions: 1 2 3 4 5 6 7 8 9 10 11 12 13 14 15 16 17 18 19 20 21 22 23 24 25 26 27 28
000
ASUS42 KKEY 251810
RWRKEY

FLORIDA REGIONAL WEATHER ROUNDUP FOR THE FLORIDA KEYS
NATIONAL WEATHER SERVICE KEY WEST FLORIDA
200 PM EDT SUN JUN 25 2017

...SOUTH FLORIDA AND THE KEYS...

CITY           SKY/WX    TMP DP  RH WIND       PRES   REMARKS
FORT MYERS     PTSUNNY   93  72  50 E8        30.09F HX 101
SW REGIONAL AP MOSUNNY   91  69  48 NE3       30.10F HX  96
NAPLES         PTSUNNY   89  73  59 SW13      30.09F HX  97
MIAMI          PTSUNNY   91  73  55 E13       30.12F HX  99
WEST KENDALL   MOSUNNY   89  73  59 E15       30.11F HX  97
HOMESTEAD      CLOUDY    88  77  69 E9        30.11F HX 101
MARATHON       SUNNY     89  79  72 E8        30.10S HX 104
BOCA CHICA NAS MOSUNNY   89  78  70 E15       30.10S HX 103
KEY WEST INTL  SUNNY     88  76  67 E13       30.10F HX  99

...INTERNATIONAL WEATHER...

CITY           SKY/WX    TMP DP  RH WIND       PRES   REMARKS
NASSAU BAHAMAS MOSUNNY   91  77  62 SE12      30.14F HX 105
CANCUN MEXICO  PTSUNNY   86  77  74 NE10      30.04F HX  97
COZUMEL MEXICO PTSUNNY   81  79  94 SE8       30.01F

ADJACENT COASTAL WATERS...

STATION/POSITION TIME  SKY/WX   TEMP    WIND        PRES    WAVE
                                AIR SEA DIR/SP/G            HT/PER
                 (UTC)          (F)     (DEG/KT/KT) (MB)    (FT/S)
PULASKI SHOAL LI 1800            84     110/ 11/ 12 1019.2F
SAND KEY         1750            83     110/ 11/ 13 1019.8F
LONG KEY         NOT AVBL
MOLASSES REEF    1800            83 84  120/ 11/ 12 1019.8F
FOWEY ROCKS      1800            83 83  100/ 11/ 12 1020.4F
Buoy 42097       1730               82                N/A     2/ 5

$$




USA.gov is the U.S. government's official web portal to all federal, state and local government web resources and services.